Weather reports worldwide

Advertisment
Piarco Int. Airport, Trinidad / Tobago (78970): temperature & dewpoint: 18.04.2019 03:00:00 - 24.04.2019 03:00:00 (AST)Piarco Int. Airport, Trinidad / Tobago (78970): wind speed: 18.04.2019 03:00:00 - 24.04.2019 03:00:00 (AST)Piarco Int. Airport, Trinidad / Tobago (78970): wind direction: 18.04.2019 03:00:00 - 24.04.2019 03:00:00 (AST)Piarco Int. Airport, Trinidad / Tobago (78970): reduced air pressure: 18.04.2019 03:00:00 - 24.04.2019 03:00:00 (AST)Piarco Int. Airport, Trinidad / Tobago (78970): visibility: 18.04.2019 03:00:00 - 24.04.2019 03:00:00 (AST)
Date & Time tt [°C] td [°C] ff [km/h] ff [kn] dd ppp [hPa] vv [km]
24.04.2019 03:00:00 - - - - - - -
24.04.2019 02:00:00 26,1 22,7 11 6 E 1012,1 15
24.04.2019 01:00:00 26,0 23,0 9 5 ESE - 10
24.04.2019 00:00:00 26,0 23,0 9 5 ESE - 10
23.04.2019 23:00:00 25,7 23,2 11 6 ESE 1013,6 14
23.04.2019 22:00:00 26,0 23,0 9 5 E - 10
23.04.2019 21:00:00 26,0 23,0 11 6 ESE - 10
23.04.2019 20:00:00 27,0 23,1 9 5 ESE 1011,6 12
23.04.2019 19:00:00 28,0 23,0 15 8 ESE - 10
23.04.2019 18:00:00 - - - - - - -
23.04.2019 17:00:00 30,0 23,2 26 14 ESE 1010,3 16
23.04.2019 16:00:00 31,0 23,0 24 13 ESE - 10
23.04.2019 15:00:00 32,0 22,0 29 16 ESE - 10
23.04.2019 14:00:00 32,4 22,3 26 14 ESE 1011,1 19
23.04.2019 13:00:00 32,0 21,0 24 13 ESE - 10
23.04.2019 12:00:00 33,0 21,0 22 12 ESE - 10
23.04.2019 11:00:00 31,1 21,0 22 12 E 1012,5 20
23.04.2019 10:00:00 31,0 21,0 21 11 ESE - 10
23.04.2019 09:00:00 29,0 22,0 21 11 ESE - 10
23.04.2019 08:00:00 28,5 22,8 18 10 ESE 1013,7 15
23.04.2019 07:00:00 26,0 23,0 0 0 N - 10
23.04.2019 06:00:00 24,0 22,0 0 0 N - 10
23.04.2019 05:00:00 23,8 22,3 0 0 N 1012,2 18
23.04.2019 04:00:00 24,0 22,0 5 3 ESE - 10
23.04.2019 03:00:00 25,0 22,0 0 0 N - 10
23.04.2019 02:00:00 24,6 22,2 0 0 N 1011,4 18
23.04.2019 01:00:00 25,0 23,0 0 0 N - 10
23.04.2019 00:00:00 25,0 23,0 9 5 ESE - 10
22.04.2019 23:00:00 25,6 22,7 9 5 ESE 1012,8 18
22.04.2019 22:00:00 26,0 23,0 13 7 E - 10
22.04.2019 21:00:00 26,0 23,0 11 6 ESE - 10
22.04.2019 20:00:00 26,4 22,9 11 6 ESE 1011,8 18
22.04.2019 19:00:00 27,0 22,0 15 8 ESE - 10
22.04.2019 18:00:00 28,0 22,0 18 10 ESE - 10
22.04.2019 17:00:00 29,0 21,4 24 13 ESE 1010,7 10
22.04.2019 16:00:00 30,0 22,0 24 13 ESE - 10
22.04.2019 15:00:00 31,0 22,0 24 13 E - 10
22.04.2019 14:00:00 31,2 21,0 24 13 ESE 1011,3 10
22.04.2019 13:00:00 31,0 22,0 21 11 ESE - 10
22.04.2019 12:00:00 30,0 23,0 24 13 ESE - 10
22.04.2019 11:00:00 29,9 22,8 22 12 ESE 1013,4 16
22.04.2019 10:00:00 30,0 23,0 22 12 ESE - 10
22.04.2019 09:00:00 29,0 23,0 18 10 ESE - 10
22.04.2019 08:00:00 27,5 21,7 16 9 E 1013,9 18
22.04.2019 07:00:00 25,0 23,0 11 6 E - 10
22.04.2019 06:00:00 24,0 23,0 0 0 N - 8
22.04.2019 05:00:00 24,6 23,1 0 0 N 1012,5 18
22.04.2019 04:00:00 25,0 23,0 0 0 N - 10
22.04.2019 03:00:00 25,0 23,0 0 0 N - 10
22.04.2019 02:00:00 24,8 23,0 5 3 ESE 1012,8 15
22.04.2019 01:00:00 25,0 23,0 4 2 - - 10
22.04.2019 00:00:00 25,0 23,0 21 11 ENE - 10
21.04.2019 23:00:00 25,5 22,9 5 3 E 1014,1 16
21.04.2019 22:00:00 26,0 23,0 9 5 ESE - 10
21.04.2019 21:00:00 26,0 23,0 13 7 E - 10
21.04.2019 20:00:00 26,4 22,7 11 6 E 1012,9 14
21.04.2019 19:00:00 27,0 23,0 15 8 ESE - 10
21.04.2019 18:00:00 28,0 22,0 26 14 E - 10
21.04.2019 17:00:00 29,0 21,5 28 15 ESE 1011,7 10
21.04.2019 16:00:00 30,0 21,0 28 15 E - 9
21.04.2019 15:00:00 30,0 22,0 28 15 E - 10
21.04.2019 14:00:00 30,5 21,7 29 16 ESE 1013,0 10
21.04.2019 13:00:00 30,0 22,0 34 18 E - 10
21.04.2019 12:00:00 31,0 22,0 28 15 E - 10
21.04.2019 11:00:00 30,0 22,1 28 15 E 1015,1 15
21.04.2019 10:00:00 31,0 22,0 24 13 ESE - 10
21.04.2019 09:00:00 29,0 23,0 24 13 E - 10
21.04.2019 08:00:00 27,6 22,8 15 8 ESE 1015,1 15
21.04.2019 07:00:00 26,0 23,0 9 5 ESE - 10
21.04.2019 06:00:00 25,0 24,0 9 5 ESE - 10
21.04.2019 05:00:00 25,0 22,7 11 6 ESE 1013,5 15
21.04.2019 04:00:00 25,0 23,0 9 5 ESE - 10
21.04.2019 03:00:00 26,0 23,0 13 7 E - 10
21.04.2019 02:00:00 25,8 22,6 18 10 E 1013,3 15
21.04.2019 01:00:00 26,0 23,0 15 8 E - 10
21.04.2019 00:00:00 26,0 23,0 0 0 N - 10
20.04.2019 23:00:00 25,6 22,7 0 0 N 1015,0 15
20.04.2019 22:00:00 26,0 23,0 5 3 SE - 10
20.04.2019 21:00:00 26,0 22,0 24 13 E - 10
20.04.2019 20:00:00 27,0 22,3 16 9 E 1013,6 15
20.04.2019 19:00:00 27,0 23,0 18 10 E - 10
20.04.2019 18:00:00 28,0 22,0 26 14 E - 10
20.04.2019 17:00:00 29,4 22,3 24 13 ESE 1012,7 10
20.04.2019 16:00:00 31,0 21,0 28 15 ESE - 10
20.04.2019 15:00:00 32,0 20,0 26 14 E - 10
20.04.2019 14:00:00 30,3 21,8 28 15 E 1014,0 10
20.04.2019 13:00:00 31,0 21,0 28 15 ESE - 10
20.04.2019 12:00:00 31,0 21,0 28 15 E - 8
20.04.2019 11:00:00 30,7 21,9 28 15 ESE 1015,9 8
20.04.2019 10:00:00 29,0 24,0 34 18 ESE - 8
20.04.2019 09:00:00 29,0 23,0 26 14 E - 10
20.04.2019 08:00:00 26,0 23,4 15 8 E 1015,9 8
20.04.2019 07:00:00 25,0 23,0 21 11 E - 10
20.04.2019 06:00:00 25,0 22,0 13 7 E - 8
20.04.2019 05:00:00 24,9 23,0 0 0 N 1013,9 10
20.04.2019 04:00:00 25,0 23,0 9 5 ESE - 10
20.04.2019 03:00:00 25,0 23,0 4 2 ESE - 10
20.04.2019 02:00:00 24,7 23,1 9 5 E 1013,5 20
20.04.2019 01:00:00 25,0 23,0 4 2 SE - 10
20.04.2019 00:00:00 25,0 23,0 4 2 ESE - 10
19.04.2019 23:00:00 25,6 22,9 5 3 ESE 1014,8 18
19.04.2019 22:00:00 25,0 23,0 5 3 E - 10
19.04.2019 21:00:00 26,0 23,0 4 2 ESE - 10
19.04.2019 20:00:00 26,5 22,9 5 3 E 1013,2 16
19.04.2019 19:00:00 27,0 23,0 11 6 ESE - 10
19.04.2019 18:00:00 27,0 22,0 24 13 ESE - 10
19.04.2019 17:00:00 29,8 21,9 26 14 ESE 1012,3 16
19.04.2019 16:00:00 29,0 22,0 31 17 E - 10
19.04.2019 15:00:00 31,0 22,0 26 14 ESE - 10
19.04.2019 14:00:00 31,7 21,9 31 17 ESE 1012,8 20
19.04.2019 13:00:00 32,0 21,0 31 17 ESE - 10
19.04.2019 12:00:00 32,0 21,0 26 14 ESE - 10
19.04.2019 11:00:00 31,4 21,5 29 16 ESE 1015,5 22
19.04.2019 10:00:00 30,0 22,0 29 16 E - 10
19.04.2019 09:00:00 29,0 24,0 29 16 ESE - 10
19.04.2019 08:00:00 27,6 23,7 13 7 ESE 1014,9 10
19.04.2019 07:00:00 26,0 22,0 9 5 E - 10
19.04.2019 06:00:00 24,0 23,0 13 7 SE - 10
19.04.2019 05:00:00 24,9 23,0 11 6 E 1013,1 25
19.04.2019 04:00:00 24,0 22,0 9 5 E - 10
19.04.2019 03:00:00 25,0 23,0 8 4 ESE - 10
19.04.2019 02:00:00 24,9 22,6 11 6 SE 1012,5 20
19.04.2019 01:00:00 26,0 23,0 8 4 ESE - 10
19.04.2019 00:00:00 25,0 23,0 8 4 E - 10
18.04.2019 23:00:00 25,3 22,6 11 6 SE 1014,3 20
18.04.2019 22:00:00 26,0 22,0 9 5 E - 10
18.04.2019 21:00:00 26,0 21,0 15 8 E - 10
18.04.2019 20:00:00 26,4 22,7 15 8 E 1013,1 10
18.04.2019 19:00:00 27,0 24,0 13 7 ESE - 10
18.04.2019 18:00:00 27,0 21,0 18 10 ESE - 10
18.04.2019 17:00:00 28,0 20,7 24 13 E 1011,2 17
18.04.2019 16:00:00 30,0 22,0 28 15 ESE - 10
18.04.2019 15:00:00 29,0 21,0 34 18 ESE - 10
18.04.2019 14:00:00 31,5 20,7 24 13 E 1011,7 18
18.04.2019 13:00:00 33,0 20,0 24 13 E - 10
18.04.2019 12:00:00 30,0 23,0 28 15 ESE - 10
18.04.2019 11:00:00 29,3 22,8 21 11 SE 1014,5 12
18.04.2019 10:00:00 27,0 23,0 16 9 E - 10
18.04.2019 09:00:00 25,0 23,0 11 6 E - 10
18.04.2019 08:00:00 26,0 22,8 15 8 E 1013,8 18
18.04.2019 07:00:00 26,0 23,0 0 0 N - 9
18.04.2019 06:00:00 25,0 22,0 0 0 N - 10
18.04.2019 05:00:00 24,6 22,2 5 3 ESE 1011,6 18
18.04.2019 04:00:00 25,0 22,0 15 8 ESE - 10
18.04.2019 03:00:00 25,0 23,0 11 6 ESE - 10

tt = temperature
td = dewpoint
ff = wind speed
dd = wind direction
ppp = reduced air pressure
vv = visibility

Next stations